User: anonymous   Login
Location: Unspecified
(0.0000°N, 0.0000°E)
Time: 01:26:16
(UTC+00:00)
Language:

RS-6 - Orbit

View from above orbital plane
View from above orbital plane
View from above satellite
View from above satellite

Ground track
Ground track

The orbit data is extracted from the following two-line orbital elements,

1 13000U 81120D   22138.49517481 -.00000094  00000-0 -11777-2 0  9991
2 13000  82.9590 153.1173 0018305   5.3566 150.3299 12.06886955780321
Epoch (UTC): 18 May 2022 11:53:03
Eccentricity: 0.0018305
inclination: 82.9590°
perigee height: 1635 km
apogee height: 1665 km
right ascension of ascending node: 153.1173°
argument of perigee: 5.3566°
revolutions per day: 12.06886955
mean anomaly at epoch: 150.3299°
orbit number at epoch: 78032

The dashed part of the orbit path shows where the satellite is in the earth's shadow,  

DLR